Blattenbach Aussen Messungen

Zurück zum Überblick

Zeitpunkt Temperatur Temperatur Kabelsensor Luftfeuchte
20.11.2018 08:10:41 0,3 C 6,0 C 81,0%
20.11.2018 08:03:42 0,0 C 6,0 C 80,0%
20.11.2018 07:56:39 0,2 C 6,0 C 81,0%
20.11.2018 07:49:42 0,2 C 6,0 C 81,0%
20.11.2018 07:42:41 0,2 C 6,0 C 81,0%
20.11.2018 07:35:41 0,1 C 6,0 C 81,0%
20.11.2018 07:28:43 0,0 C 6,0 C 82,0%
20.11.2018 07:21:40 0,0 C 6,0 C 82,0%
20.11.2018 07:14:42 0,0 C 6,0 C 82,0%
20.11.2018 07:07:39 -0,2 C 6,0 C 82,0%
20.11.2018 07:00:39 -0,4 C 6,0 C 82,0%
20.11.2018 06:53:41 -0,5 C 6,0 C 82,0%
20.11.2018 06:46:38 -0,7 C 6,0 C 83,0%
20.11.2018 06:39:39 -0,9 C 6,0 C 83,0%
20.11.2018 06:32:42 -1,0 C 6,0 C 83,0%
20.11.2018 06:25:39 -1,0 C 6,0 C 83,0%
20.11.2018 06:18:43 -0,9 C 6,0 C 83,0%
20.11.2018 06:11:38 -0,9 C 6,0 C 83,0%
20.11.2018 06:04:40 -1,0 C 6,0 C 84,0%
20.11.2018 05:57:42 -1,2 C 6,0 C 83,0%
20.11.2018 05:50:39 -1,5 C 6,0 C 84,0%
20.11.2018 05:43:39 -1,9 C 6,0 C 83,0%
20.11.2018 05:36:40 -2,0 C 6,0 C 83,0%
20.11.2018 05:29:40 -2,0 C 6,0 C 83,0%
20.11.2018 05:22:42 -2,0 C 6,0 C 82,0%
20.11.2018 05:15:42 -2,0 C 6,0 C 82,0%
20.11.2018 05:08:39 -1,9 C 6,1 C 82,0%
20.11.2018 05:01:38 -1,9 C 6,1 C 81,0%
20.11.2018 04:54:43 -2,0 C 6,1 C 81,0%
20.11.2018 04:47:40 -1,8 C 6,1 C 82,0%
20.11.2018 04:40:40 -1,9 C 6,1 C 82,0%
20.11.2018 04:33:41 -1,9 C 6,1 C 81,0%
20.11.2018 04:26:39 -2,0 C 6,1 C 81,0%
20.11.2018 04:19:41 -1,9 C 6,1 C 81,0%
20.11.2018 04:12:38 -1,8 C 6,2 C 82,0%
20.11.2018 04:05:40 -1,9 C 6,2 C 81,0%
20.11.2018 03:58:41 -1,8 C 6,2 C 81,0%
20.11.2018 03:51:41 -1,9 C 6,2 C 81,0%
20.11.2018 03:44:39 -1,8 C 6,2 C 80,0%
20.11.2018 03:37:43 -1,6 C 6,2 C 80,0%
20.11.2018 03:30:40 -1,5 C 6,2 C 80,0%
20.11.2018 03:23:39 -1,5 C 6,2 C 80,0%
20.11.2018 03:16:41 -1,5 C 6,3 C 80,0%
20.11.2018 03:09:42 -1,6 C 6,3 C 80,0%
20.11.2018 03:02:39 -1,6 C 6,3 C 79,0%
20.11.2018 02:55:42 -1,6 C 6,3 C 80,0%
20.11.2018 02:48:42 -1,6 C 6,3 C 79,0%
20.11.2018 02:41:40 -1,5 C 6,3 C 79,0%
20.11.2018 02:34:39 -1,3 C 6,3 C 79,0%
20.11.2018 02:27:39 -1,3 C 6,3 C 80,0%